9D9-WX Weather Reports


time (UTC)temp
F
wind
direction
speed
knots
gust
knots
rain 1hr
in
rain 24hr
in
rain mn
in
humidity
%
barometer
mb
20260505164512 54 279 11.3 0.0 0.00 0.01 0.01 43 979.1
20260505163028 52 278 11.3 0.0 0.00 0.01 0.01 45 977.4
20260505161512 51 273 10.4 0.0 0.00 0.01 0.01 45 977.4
20260505153029 50 278 11.3 0.0 0.00 0.01 0.01 49 978.2
20260505151512 51 280 12.2 0.0 0.00 0.01 0.01 49 978.2
20260505124511 51 308 7.8 0.0 0.00 0.00 0.00 73 977.0
20260505123029 51 295 7.8 0.0 0.00 0.00 0.00 73 975.6
20260505121512 50 297 8.7 0.0 0.00 0.00 0.00 73 975.6
20260505120035 49 282 9.6 0.0 0.00 0.00 0.00 73 975.6
20260505114512 49 276 8.7 0.0 0.00 0.00 0.00 71 975.6
20260505113025 49 268 8.7 0.0 0.00 0.00 0.00 68 974.2
20260505111511 49 262 7.8 0.0 0.00 0.00 0.00 68 974.2
20260505101511 50 260 9.6 0.0 0.00 0.00 0.00 59 972.7
20260505100035 51 262 9.6 0.0 0.00 0.00 0.00 59 972.7
20260505094511 51 265 8.7 0.0 0.00 0.00 0.00 70 972.9
20260505093030 51 264 7.0 0.0 0.00 0.00 0.00 75 972.7
20260505091511 52 256 10.4 0.0 0.00 0.00 0.00 75 972.6
20260505090036 51 246 6.1 0.0 0.00 0.00 0.00 75 972.6
20260505084509 52 262 7.8 0.0 0.00 0.00 0.00 76 973.0
20260505083027 53 262 7.8 0.0 0.00 0.00 0.00 83 972.3
20260505081511 53 258 8.7 0.0 0.00 0.00 0.00 83 972.3
20260505080033 54 253 8.7 0.0 0.00 0.00 0.00 73 972.6
20260505074511 54 246 8.7 0.0 0.00 0.00 0.00 76 971.8
20260505073030 55 240 7.8 0.0 0.00 0.00 0.00 76 971.8
20260505071512 55 232 9.6 0.0 0.00 0.00 0.00 76 971.9
20260505070033 56 230 9.6 0.0 0.00 0.00 0.00 76 971.9
20260505064511 56 247 8.7 0.0 0.00 0.00 0.00 77 972.4
20260505063024 57 236 9.6 0.0 0.00 0.00 0.00 76 971.8
20260505061512 57 236 8.7 0.0 0.00 0.00 0.00 76 971.8
20260505060035 58 237 7.8 0.0 0.00 0.00 0.00 76 971.8
20260505054512 58 241 9.6 0.0 0.00 0.00 0.00 74 972.8
20260505053030 58 228 10.4 0.0 0.00 0.00 0.00 63 971.6
20260505051511 60 225 10.4 0.0 0.00 0.00 0.00 63 971.7
20260505041511 61 206 12.2 0.0 0.00 0.00 0.00 63 971.8
20260505040034 62 203 13.9 0.0 0.00 0.00 0.00 63 971.8
20260505034508 62 211 12.2 0.0 0.00 0.00 0.00 61 971.4
20260505033029 62 192 13.9 0.0 0.00 0.00 0.00 58 971.3
20260505031511 62 204 13.0 0.0 0.00 0.00 0.00 58 971.3
20260505030034 62 212 12.2 0.0 0.00 0.00 0.00 58 971.3
20260505024511 63 206 13.0 0.0 0.00 0.00 0.00 53 971.7
20260505023029 64 218 13.9 0.0 0.00 0.00 0.00 57 971.8
20260505021511 64 216 14.8 0.0 0.00 0.00 0.00 57 971.8
20260505020033 64 207 13.9 0.0 0.00 0.00 0.00 57 971.8
20260505014511 64 212 13.0 0.0 0.00 0.00 0.00 61 970.9
20260505013027 65 213 13.9 0.0 0.00 0.00 0.00 61 970.9
20260505011512 64 219 13.0 0.0 0.00 0.00 0.00 61 970.8
20260505010031 64 205 13.0 0.0 0.00 0.00 0.00 61 970.8
20260505004511 66 207 9.6 0.0 0.00 0.00 0.00 38 971.4
20260505003027 67 207 9.6 0.0 0.00 0.00 0.00 43 972.2
20260505001510 68 205 7.0 0.0 0.00 0.00 0.00 43 972.1
20260505000029 69 214 5.2 0.0 0.00 0.00 0.00 43 972.1
20260504234510 70 229 6.1 0.0 0.00 0.00 0.00 33 972.0
20260504233027 70 245 7.8 0.0 0.00 0.00 0.00 33 971.9
20260504231509 71 253 9.6 0.0 0.00 0.00 0.00 33 971.9
20260504230031 72 257 11.3 0.0 0.00 0.00 0.00 33 971.9
20260504224510 72 257 13.0 0.0 0.00 0.00 0.00 36 971.5
20260504223029 73 255 14.8 0.0 0.00 0.00 0.00 37 971.9
20260504221510 73 249 15.6 0.0 0.00 0.00 0.00 37 971.9
20260504220034 73 248 15.6 0.0 0.00 0.00 0.00 37 971.9
20260504214509 73 249 14.8 0.0 0.00 0.00 0.00 37 973.0
20260504213029 73 253 14.8 0.0 0.00 0.00 0.00 37 973.0
20260504211509 73 251 16.5 0.0 0.00 0.00 0.00 36 972.0
20260504210032 73 248 17.4 0.0 0.00 0.00 0.00 36 972.0
20260504204514 73 241 17.4 0.0 0.00 0.00 0.00 38 972.7
20260504203022 74 240 16.5 0.0 0.00 0.00 0.00 38 972.7
20260504201515 74 239 15.6 0.0 0.00 0.00 0.00 38 972.7
20260504200029 74 227 16.5 0.0 0.00 0.00 0.00 39 971.9
20260504194515 74 226 17.4 0.0 0.00 0.00 0.00 40 973.0
20260504193030 74 222 16.5 0.0 0.00 0.00 0.00 40 973.0
20260504191515 73 228 16.5 0.0 0.00 0.00 0.00 40 972.9
20260504190033 73 225 15.6 0.0 0.00 0.00 0.00 40 972.9
20260504184510 73 229 16.5 0.0 0.00 0.00 0.00 30 974.0
20260504183031 73 227 15.6 0.0 0.00 0.00 0.00 30 973.7
20260504181514 73 229 14.8 0.0 0.00 0.00 0.00 30 973.7
20260504180035 73 231 15.6 0.0 0.00 0.00 0.00 30 973.7
20260504174514 72 234 15.6 0.0 0.00 0.00 0.00 34 974.6
20260504173024 72 232 15.6 0.0 0.00 0.00 0.00 37 974.4
20260504171514 71 231 15.6 0.0 0.00 0.00 0.00 37 974.4